Weather in Zenzeli

Russia / Astrakhan Oblast     45°56′01″N   47°03′20″E
temp.,
°C
wind,
m/s
gust,
m/s
humid.,
%
clouds,
%
prec.,
mm/h
press.,
hPa
HPBL,
m
1 august, sun
sun101:00+25sse355086 0.0 1011101
04:00+24sse3362100 0.0 101139
07:00+25se355975 0.0 1011207
10:00+31sse34362 0.0 10121235
13:00+35sse55292 0.0 10112345
16:00+36se65260 0.0 10102560
19:00+34se65270 0.0 10101185
22:00+28sse47400 0.0 1011181
2 august, mon
mon201:00+26sse34482 0.0 101171
04:00+25se224972 0.0 101118
07:00+28e234111 0.0 1012142
10:00+34ese451974 0.0 1012982
13:00+37sse7816100 0.0 10111683
16:00+38ese661354 0.0 10102435
19:00+37se5513100 0.0 1010957
22:00+29se463284 0.0 101181
3 august, tue
tue301:00+27sse464790 0.0 101094
04:00+26sse23415 0.0 101013
07:00+28w11365 0.0 101212
10:00+35se23160 0.0 1011721
13:00+40sse68100 0.0 10103885
16:00+40sse6690 0.0 10093707
19:00+38se66101 0.0 10091182
22:00+30sse46220 0.0 101087
4 august, wed
wed401:00+28ssw47340 0.0 101096
04:00+27ssw33370 0.0 101023
07:00+28ssw22330 0.0 101149
10:00+36s34160 0.0 1011705
13:00+40ssw34105 0.0 10102844
16:00+41wsw32924 0.0 10094025
19:00+39sse431130 0.0 1009742
22:00+31s611265 0.0 1011268
5 august, thu
thu501:00+28sse33325 0.0 101137
04:00+27nne583423 0.0 1011150
07:00+28nnw61043100 0.0 1012422
10:00+30n101138100 0.0 1014928
13:00+30nne4440100 0.0 1013568
16:00+33nnw34312 0.0 10131592
19:00+33nnw44260 0.0 10122158
22:00+29ne463735 0.0 1013108